When you browse on this site, cookies collect data to enhance your experience and personalize the content and advertising you see.
Visit our Privacy Policy to learn more. By continuing to use the site, you agree to this use of cookies and data.
  • In Germany
  • List of Countries
  • For 7 days
  • Water Temperature
  • Satellite Maps
  • Weather Map
  • Weather Widgets
  • user-avatar
    Login

    Hourly Weather Jalalabad

    Today, 15 July, Monday

    Time Temperature Precipitation Wind Pressure Humidity
    00:00 +34°C° 0.2 mm 2 mps 701 mmHg 61%
    01:00 +34°C° 0.2 mm 2 mps 701 mmHg 63%
    02:00 +32°C° 0.2 mm 1 mps 701 mmHg 64%
    03:00 +32°C° 0.2 mm 1 mps 701 mmHg 65%
    04:00 +31°C° 0.2 mm 1 mps 700 mmHg 67%
    05:00 +31°C° 0 mm 2 mps 701 mmHg 72%
    06:00 +31°C° 0.4 mm 2 mps 701 mmHg 69%
    07:00 +31°C° 0.4 mm 2 mps 701 mmHg 66%
    08:00 +31°C° 0.4 mm 2 mps 701 mmHg 63%
    09:00 +34°C° 0 mm 2 mps 701 mmHg 54%
    10:00 +36°C° 0 mm 3 mps 701 mmHg 46%
    11:00 +37°C° 0 mm 3 mps 701 mmHg 36%
    12:00 +38°C° 0 mm 3 mps 701 mmHg 33%
    13:00 +40°C° 0 mm 4 mps 701 mmHg 30%
    14:00 +41°C° 0 mm 4 mps 700 mmHg 27%
    15:00 +41°C° 0 mm 5 mps 700 mmHg 30%
    16:00 +40°C° 0 mm 6 mps 700 mmHg 33%
    17:00 +40°C° 0 mm 7 mps 700 mmHg 36%
    18:00 +39°C° 0.1 mm 6 mps 700 mmHg 41%
    19:00 +36°C° 0.1 mm 5 mps 701 mmHg 45%
    20:00 +35°C° 0.1 mm 4 mps 701 mmHg 50%
    21:00 +35°C° 0.1 mm 3 mps 701 mmHg 53%
    22:00 +34°C° 0.1 mm 3 mps 702 mmHg 55%
    23:00 +32°C° 0.1 mm 2 mps 703 mmHg 58%

    Tomorrow, 16 July, Tuesday

    Time Temperature Precipitation Wind Pressure Humidity
    00:00 +32°C° 0 mm 2 mps 702 mmHg 59%
    01:00 +32°C° 0 mm 2 mps 702 mmHg 61%
    02:00 +32°C° 0 mm 1 mps 702 mmHg 62%
    03:00 +31°C° 0 mm 1 mps 702 mmHg 63%
    04:00 +31°C° 0 mm 1 mps 702 mmHg 64%
    05:00 +29°C° 0 mm 0 mps 702 mmHg 65%
    06:00 +29°C° 0 mm 0 mps 702 mmHg 62%
    07:00 +30°C° 0 mm 0 mps 703 mmHg 60%
    08:00 +32°C° 0 mm 1 mps 703 mmHg 57%
    09:00 +34°C° 0 mm 1 mps 703 mmHg 50%
    10:00 +36°C° 0 mm 2 mps 703 mmHg 42%
    11:00 +38°C° 0 mm 2 mps 703 mmHg 35%
    12:00 +39°C° 0 mm 3 mps 703 mmHg 31%
    13:00 +40°C° 0 mm 3 mps 702 mmHg 27%
    14:00 +42°C° 0 mm 4 mps 702 mmHg 24%
    15:00 +42°C° 0 mm 5 mps 702 mmHg 25%
    16:00 +42°C° 0 mm 6 mps 702 mmHg 27%
    17:00 +42°C° 0 mm 6 mps 702 mmHg 28%
    18:00 +41°C° 0 mm 6 mps 702 mmHg 32%
    19:00 +40°C° 0 mm 5 mps 702 mmHg 36%
    20:00 +39°C° 0 mm 5 mps 702 mmHg 40%
    21:00 +37°C° 0 mm 4 mps 703 mmHg 42%
    22:00 +37°C° 0 mm 3 mps 703 mmHg 44%
    23:00 +36°C° 0 mm 3 mps 704 mmHg 46%

    Day after tomorrow, 17 July, Wednesday

    Time Temperature Precipitation Wind Pressure Humidity
    00:00 +36°C° 0 mm 2 mps 704 mmHg 48%
    01:00 +35°C° 0 mm 2 mps 703 mmHg 51%
    02:00 +34°C° 0 mm 2 mps 703 mmHg 54%
    03:00 +34°C° 0.1 mm 2 mps 703 mmHg 55%
    04:00 +33°C° 0.1 mm 1 mps 703 mmHg 57%
    05:00 +30°C° 0.1 mm 0 mps 703 mmHg 58%
    06:00 +31°C° 0 mm 0 mps 703 mmHg 56%
    07:00 +31°C° 0 mm 0 mps 703 mmHg 54%
    08:00 +32°C° 0 mm 0 mps 704 mmHg 52%
    09:00 +35°C° 0 mm 1 mps 703 mmHg 46%
    10:00 +36°C° 0 mm 1 mps 703 mmHg 41%
    11:00 +39°C° 0 mm 2 mps 703 mmHg 36%
    12:00 +40°C° 0 mm 2 mps 703 mmHg 32%
    13:00 +42°C° 0 mm 3 mps 703 mmHg 28%
    14:00 +43°C° 0 mm 4 mps 703 mmHg 24%
    15:00 +43°C° 0 mm 5 mps 702 mmHg 25%
    16:00 +43°C° 0 mm 5 mps 702 mmHg 26%
    17:00 +44°C° 0 mm 6 mps 702 mmHg 27%
    18:00 +42°C° 0 mm 6 mps 702 mmHg 31%
    19:00 +41°C° 0 mm 5 mps 703 mmHg 35%
    20:00 +40°C° 0 mm 5 mps 703 mmHg 40%
    21:00 +36°C° 0.1 mm 3 mps 703 mmHg 50%
    22:00 +36°C° 0.1 mm 3 mps 704 mmHg 52%
    23:00 +36°C° 0.1 mm 2 mps 704 mmHg 54%

    18 July, Thursday

    Time Temperature Precipitation Wind Pressure Humidity
    00:00 +35°C° 0 mm 2 mps 704 mmHg 56%
    01:00 +34°C° 0 mm 1 mps 703 mmHg 57%
    02:00 +33°C° 0 mm 1 mps 703 mmHg 59%
    03:00 +33°C° 0 mm 1 mps 703 mmHg 60%
    04:00 +33°C° 0 mm 1 mps 703 mmHg 62%
    05:00 +30°C° 0 mm 0 mps 703 mmHg 63%
    06:00 +33°C° 0 mm 1 mps 703 mmHg 61%
    07:00 +33°C° 0 mm 1 mps 703 mmHg 59%
    08:00 +34°C° 0 mm 1 mps 703 mmHg 57%
    09:00 +35°C° 0 mm 1 mps 703 mmHg 50%
    10:00 +38°C° 0 mm 2 mps 703 mmHg 43%
    11:00 +39°C° 0 mm 2 mps 703 mmHg 36%
    12:00 +40°C° 0 mm 2 mps 702 mmHg 32%
    13:00 +42°C° 0 mm 3 mps 702 mmHg 29%
    14:00 +44°C° 0 mm 4 mps 702 mmHg 25%
    15:00 +43°C° 0 mm 5 mps 702 mmHg 27%
    16:00 +44°C° 0 mm 6 mps 702 mmHg 28%
    17:00 +44°C° 0 mm 7 mps 702 mmHg 29%
    18:00 +42°C° 0 mm 6 mps 702 mmHg 33%
    19:00 +41°C° 0 mm 5 mps 702 mmHg 37%
    20:00 +40°C° 0 mm 5 mps 703 mmHg 41%
    21:00 +40°C° 0 mm 4 mps 703 mmHg 42%
    22:00 +38°C° 0 mm 3 mps 703 mmHg 44%
    23:00 +38°C° 0 mm 2 mps 704 mmHg 45%

    19 July, Friday

    Time Temperature Precipitation Wind Pressure Humidity
    00:00 +37°C° 0 mm 2 mps 704 mmHg 47%
    01:00 +37°C° 0 mm 2 mps 703 mmHg 49%
    02:00 +35°C° 0 mm 1 mps 703 mmHg 52%
    03:00 +35°C° 0 mm 1 mps 703 mmHg 54%
    04:00 +34°C° 0 mm 1 mps 703 mmHg 56%
    05:00 +32°C° 0 mm 0 mps 703 mmHg 58%
    06:00 +35°C° 0 mm 1 mps 703 mmHg 55%
    07:00 +35°C° 0 mm 1 mps 704 mmHg 53%
    08:00 +36°C° 0 mm 1 mps 704 mmHg 51%
    09:00 +38°C° 0 mm 2 mps 704 mmHg 46%
    10:00 +39°C° 0 mm 2 mps 704 mmHg 41%
    11:00 +40°C° 0 mm 3 mps 704 mmHg 36%
    12:00 +42°C° 0 mm 4 mps 704 mmHg 34%
    13:00 +43°C° 0 mm 4 mps 704 mmHg 32%
    14:00 +45°C° 0 mm 5 mps 703 mmHg 30%
    15:00 +45°C° 0 mm 5 mps 703 mmHg 31%
    16:00 +43°C° 0 mm 5 mps 703 mmHg 32%
    17:00 +43°C° 0 mm 5 mps 703 mmHg 34%
    18:00 +42°C° 0 mm 5 mps 703 mmHg 36%
    19:00 +42°C° 0 mm 5 mps 703 mmHg 39%
    20:00 +41°C° 0 mm 4 mps 704 mmHg 41%
    21:00 +40°C° 0 mm 4 mps 704 mmHg 44%
    22:00 +38°C° 0 mm 3 mps 704 mmHg 46%
    23:00 +38°C° 0 mm 3 mps 705 mmHg 48%

    20 July, Saturday

    Time Temperature Precipitation Wind Pressure Humidity
    00:00 +37°C° 0 mm 3 mps 705 mmHg 50%
    01:00 +37°C° 0 mm 2 mps 704 mmHg 52%
    02:00 +36°C° 0 mm 2 mps 704 mmHg 54%
    03:00 +35°C° 0 mm 1 mps 704 mmHg 56%
    04:00 +34°C° 0 mm 1 mps 704 mmHg 57%
    05:00 +34°C° 0 mm 1 mps 704 mmHg 59%
    06:00 +35°C° 0 mm 1 mps 704 mmHg 57%
    07:00 +35°C° 0 mm 1 mps 704 mmHg 55%
    08:00 +37°C° 0 mm 2 mps 704 mmHg 53%
    09:00 +38°C° 0 mm 2 mps 704 mmHg 49%
    10:00 +39°C° 0 mm 3 mps 704 mmHg 44%
    11:00 +40°C° 0 mm 3 mps 704 mmHg 39%
    12:00 +42°C° 0 mm 3 mps 704 mmHg 36%
    13:00 +43°C° 0 mm 4 mps 704 mmHg 32%
    14:00 +44°C° 0 mm 4 mps 703 mmHg 28%
    15:00 +45°C° 0 mm 4 mps 703 mmHg 28%
    16:00 +46°C° 0 mm 5 mps 703 mmHg 28%
    17:00 +46°C° 0 mm 5 mps 703 mmHg 28%
    18:00 +45°C° 0 mm 5 mps 703 mmHg 33%
    19:00 +42°C° 0 mm 4 mps 703 mmHg 37%
    20:00 +41°C° 0 mm 4 mps 703 mmHg 41%
    21:00 +40°C° 0 mm 3 mps 703 mmHg 43%
    22:00 +39°C° 0 mm 2 mps 704 mmHg 46%
    23:00 +38°C° 0 mm 2 mps 704 mmHg 48%
    Show more